Location: Ettringen
(48.1054°N, 10.6545°E)
Time: 20:14:30
(UTC+00:00)

ISS - Pass Details

Date: 18 November 2025
Orbit: 416 x 421 km, 51.6° (Epoch: 05 December)

Event Time Altitude Azimuth Distance (km) Brightness Sun altitude
Rises 17:58:19 0° 268° (W) 2,366 1.5 -23.5°
Reaches altitude 10° 18:00:28 10° 274° (W) 1,501 0.1 -23.9°
Enters shadow 18:02:43 35° 299° (WNW) 703 -2.2 -24.2°
